Hourly Data Report for June 07, 2021

MANIWAKI AIRPORT
QUEBEC
Current Station Operator: ECCC - MSC

46°16'29.000" N
75°59'31.000" W
199.70 m
7034482
71721
WMJ

Download Data

Hourly Data (June 2021)
Hourly Data Report for June 7, 2021
TIME
LST
Temp Definition
°C
Dew Point Definition
°C
Rel Hum Definition
%
Precip. Amount Definition
mm

Wind Dir Definition
10's deg

Wind Spd Definition
km/h
Visibility Definition
km
Stn Press Definition
kPa
Hmdx Definition


Wind Chill Definition


Weather Definition


00:00 22.1 16.8 72 0.0 19 9   98.88 27   LegendNANA
01:00 21.4 17.2 77 0.0 20 7   98.90 27   LegendNANA
02:00 17.6 15.9 90 0.0 18 2   98.88     LegendNANA
03:00 17.0 15.7 92 0.0 18 2   98.90     LegendNANA
04:00 18.1 16.1 89 0.0 20 5   98.92     LegendNANA
05:00 16.9 16.3 96 0.0   0   98.93     LegendNANA
06:00 21.0 18.6 86 0.0 16 1   98.97 27   LegendNANA
07:00 23.4 18.3 73 0.0 19 11   98.99 30   LegendNANA
08:00 26.0 18.0 61 0.0 22 11   99.00 32   LegendNANA
09:00 28.4 17.9 53 0.0 21 10   98.95 34   LegendNANA
10:00 29.3 16.7 46 0.0 22 18   98.93 34   LegendNANA
11:00 29.9 16.8 45 0.0 22 19   98.91 35   LegendNANA
12:00 30.2 17.3 46 0.0 22 20   98.89 36   LegendNANA
13:00 30.2 17.6 47 0.0 22 18   98.85 36   LegendNANA
14:00 30.5 18.3 48 0.0 22 15   98.80 37   LegendNANA
15:00 32.4 17.7 42 0.0 22 22   98.75 38   LegendNANA
16:00 31.4 17.1 43 0.0 22 25   98.70 37   LegendNANA
17:00 31.4 18.0 45 0.0 22 22   98.69 37   LegendNANA
18:00 30.5 17.9 47 0.0 23 20   98.69 36   LegendNANA
19:00 28.9 18.5 53 0.0 22 17   98.73 35   LegendNANA
20:00 25.7 18.9 66 0.0 20 9   98.75 32   LegendNANA
21:00 25.6 18.7 66 0.0 23 12   98.82 32   LegendNANA
22:00 25.2 18.7 67 0.0 22 12   98.85 32   LegendNANA
23:00 23.9 18.9 74 0.0 21 8   98.89 31   LegendNANA

Notes on Data Quality.

Legend

  • E = Estimated
  • M = Missing
  • NA = Not Available*
  • [empty] = Indicates an unobserved value
Date modified: